Regional Weather Roundup
Issued by NWS

Home | Current Version | Previous Version | Graphics & Text | Print | Product List | Glossary On
Versions: 1 2 3 4 5 6 7 8 9 10 11 12 13 14 15 16 17 18 19 20 21 22 23 24 25 26 27 28 29 30 31 32 33 34 35 36 37 38 39 40 41 42 43 44 45 46 47 48 49 50
000
ASUS43 KIND 280209
RWRIN

WEATHER ROUNDUP FOR INDIANA
NATIONAL WEATHER SERVICE INDIANAPOLIS IN
1000 PM EDT SAT MAY 27 2017

NOTE: "FAIR" INDICATES FEW OR NO CLOUDS BELOW 12,000 FEET WITH NO
SIGNIFICANT WEATHER AND/OR OBSTRUCTIONS TO VISIBILITY.

* - STATION DOES NOT REPORT WEATHER SUCH AS PRECIPITATION OR FOG.

+ - STATION NOT QUALITY CONTROLLED BY THE NATIONAL WEATHER SERVICE.
    USE DATA WITH CAUTION...ESPECIALLY DEWPOINT AND RELATIVE
    HUMIDITY OBSERVATIONS.

INZ001>003-010>013-019-020-280300-
NORTHWEST INDIANA

CITY           SKY/WX    TMP DP  RH WIND       PRES   REMARKS
GARY /AIRPORT/ PTCLDY    61  52  72 NE6       29.84F
KNOX *+        CLOUDY    64  55  72 CALM      29.83F
LA PORTE +     CLOUDY    63  59  87 N3        29.85F
MICHIGAN CITY+ PTCLDY    55  54  94 CALM      29.85F
MONTICELLO +   CLOUDY    64  61  91 CALM      29.82F
RENSSELAER +   PTCLDY    64  59  82 E5        29.83F
VALPARAISO     PTCLDY    64  60  87 NE5       29.85S

$$

LMZ046-743>745-280300-
SOUTHERN LAKE MICHIGAN

STATION/POSITION TIME  TEMP    WIND        PRES    WAVE
                       AIR SEA DIR/SP/G            HT
                 (UTC) (F)     (DEG/KT/KT) (MB)    (FT)
BURNS HARBOR     0140   58      70/ 10/ 10 1010.8F
MICHIGAN CITY    0140   58      50/  8/  8   N/A
5NW MICH CITY    0200   57 57   80/  6/  6   N/A     1

$$

INZ004-005-014>016-021>024-280300-
NORTH CENTRAL INDIANA

CITY           SKY/WX    TMP DP  RH WIND       PRES   REMARKS
GOSHEN         CLOUDY    67  60  78 SE5       29.86F
LOGANSPORT +   CLEAR     64  61  88 E3        29.84F
PERU/GRISSOM   CLOUDY    66  64  96 CALM      29.83F
ROCHESTER +    CLEAR     68  64  88 CALM      29.85F
SOUTH BEND     CLOUDY    64  60  87 NE5       29.84F
WARSAW +       CLOUDY    64  61  88 E3        29.86F

$$

INZ006>009-017-018-025>027-280300-
NORTHEAST INDIANA

CITY           SKY/WX    TMP DP  RH WIND       PRES   REMARKS
ANGOLA *+      MOCLDY    64  55  72 E3        29.87F
AUBURN +       CLEAR     63  59  88 CALM      29.88F
FORT WAYNE     CLOUDY    66  61  84 E6        29.86F
HUNTINGTON +   MOCLDY    68  64  88 E3        29.85F
KENDALLVILLE + CLOUDY    66  61  83 E5        29.88F

$$

INZ028-029-035-036-043>045-051>053-280300-
WEST CENTRAL INDIANA

CITY           SKY/WX    TMP DP  RH WIND       PRES   REMARKS
CRAWFORDSVL +  CLOUDY   -22 -23  92 E6        29.82F WCI -37
GREENCASTLE +  CLOUDY    68  61  77 CALM      29.83F
LAFAYETTE      CLOUDY    64  63  96 NE5       29.82F
TERRE HAUTE    CLOUDY    68  64  87 NE5       29.80F

$$

INZ030>032-037>040-046>048-054>057-064-065-280300-
CENTRAL INDIANA

CITY           SKY/WX    TMP DP  RH WIND       PRES   REMARKS
CP ATTERBURY + MOCLDY    68  64  88 CALM      29.84F
COLUMBUS       CLEAR     72  64  78 CALM      29.83F
FISHERS *+     CLOUDY    66  64  94 CALM      29.83F
FRANKFORT +    CLOUDY    69  64  85 E5        29.85F
INDIANAPOLIS   CLOUDY    71  62  73 NE8       29.82F
-EAGLE CREEK   CLOUDY    70  61  73 N3        29.82F
KOKOMO +       CLOUDY    66  63  90 CALM      29.86F
MARION +       CLOUDY    66  63  88 CALM      29.86F
MT COMFORT *+    N/A    N/A N/A N/A MISG        N/A
SHELBYVILLE    CLOUDY    73  63  70 N3        29.83F
ZIONSVILLE +   CLOUDY    65  62  89 CALM      29.85F

$$

INZ033-034-041-042-049-050-058-059-280300-
EAST CENTRAL INDIANA

CITY           SKY/WX    TMP DP  RH WIND       PRES   REMARKS
MUNCIE         PTCLDY    69  64  84 CALM      29.86S
RICHMOND +     CLOUDY    70  63  78 N5        29.86S

$$

INZ060-061-067>069-081>083-085>088-280300-
SOUTHWEST INDIANA

CITY           SKY/WX    TMP DP  RH WIND       PRES   REMARKS
EVANSVILLE     CLOUDY    73  60  63 W16G23    29.89F
HUNTINGBURG *+ LGT RAIN  68  66  93 S10       29.85S
WASHINGTON +   CLOUDY    72  63  72 S8        29.82F

$$

INZ062-063-066-070>080-084-089>092-280300-
SOUTH CENTRAL AND SOUTHEAST INDIANA

CITY           SKY/WX    TMP DP  RH WIND       PRES   REMARKS
BEDFORD +      MOCLDY    72  63  73 S6        29.83F
BLOOMINGTON    CLOUDY    71  64  78 SW3       29.83F
MADISON *+     CLOUDY    70  64  83 SW3       29.87F
NORTH VERNON + CLOUDY    70  66  88 S3        29.83F
SEYMOUR +      CLOUDY    75  68  78 CALM      29.83F

$$




USA.gov is the U.S. government's official web portal to all federal, state and local government web resources and services.